Content
SEND FEEDBACK

Daily
Averages
Monthly
Summary
United States of America

WESSINGTON, SOUTH DAKOTA


Home > North America > United States > South Dakota
Elevation: 1410 feet     Latitude: 44 27N     Longitude: 098 42W

WEATHER
 
SELECT A DAY
Number of Records: 201,722;   Date Range: 1/1/95 - 7/27/14
 
SHARE

PRINT THIS DATA

[ ← Previous Day ]
WEATHER ALMANAC - JANUARY 23, 2013
[ Next Day → ]
[ °C ]   °F
Weather ElementAverageHighLow
Temperature6.5 °F12 °F (11:55 am)1 °F (9:55 pm)
Dewpoint-0.3 °F5 °F (1:55 am)-9 °F (10:55 pm)
Humidity74.3 %92 % (2:55 am)61 % (12:55 pm)
Barometer30.45 in30.65 in (9:55 pm)30.22 in (1:55 am)
Wind Speed11.3 mph19.6 mph (9:55 am)
Wind Gust24.2 mph (12:55 pm)
Weather ElementAverage
Visibility10 mi
Wind DirectionSW (228.3 °)

Weather ElementTotal
Precipitation---
Heating Degree Days58.5 (Base 65)
Averaged from 23 records on January 23, 2013
WEATHER CONDITIONS BREAKOUT
WIND DIRECTION BREAKOUT
WEATHER BY HOUR - JANUARY 23, 2013
[ °C ]   °F
Local TimeTemperatureDewpointHumidityBarometerVisibilityWind DirectionWind SpeedGust SpeedPrecipitationEventsConditions
1:55 AM8.1 °F5.0 °F87 %30.22 in10.0 miCalmClear
2:55 AM5.0 °F3.0 °F92 %30.24 in10.0 miCalmClear
3:55 AM3.9 °F1.9 °F91 %30.24 in10.0 miWest (270°)4.6 mphClear
4:55 AM5.0 °F1.9 °F87 %30.25 in10.0 miNW (310°)4.6 mphClear
5:55 AM8.1 °F5.0 °F87 %30.26 in10.0 miNW (320°)9.2 mphClear
6:55 AM7.0 °F3.0 °F84 %30.30 in10.0 miNW (320°)8.1 mphClear
7:55 AM9.0 °F5.0 °F84 %30.32 in10.0 miNNW (330°)9.2 mphClear
8:55 AM10.0 °F5.0 °F80 %30.35 in10.0 miNorth (350°)13.8 mphClear
9:55 AM10.9 °F3.9 °F73 %30.39 in10.0 miNorth (350°)19.6 mph23.0 mphClear
10:55 AM10.9 °F3.0 °F70 %30.43 in10.0 miNorth (360°)16.1 mphClear
11:55 AM12.0 °F3.9 °F70 %30.46 in10.0 miNorth (350°)17.3 mphClear
12:55 PM12.0 °F1.0 °F61 %30.47 in10.0 miNorth (360°)17.3 mph24.2 mphClear
1:55 PM10.9 °F1.9 °F67 %30.48 in10.0 miNorth (10°)16.1 mphPartly Cloudy
2:55 PM9.0 °F-0.9 °F64 %30.51 in10.0 miNorth (360°)18.4 mphClear
3:55 PM6.8 °F-2.2 °F67 %30.46 in10.0 miNorth (350°)13.8 mphPartly Cloudy
4:55 PM6.1 °F-2.0 °F69 %30.57 in10.0 miNorth (350°)16.1 mphClear
5:55 PM3.9 °F-4.0 °F70 %30.60 in10.0 miNorth (350°)15.0 mphClear
6:55 PM3.0 °F-5.1 °F69 %30.62 in10.0 miNorth (360°)15.0 mphClear
7:55 PM1.9 °F-6.0 °F69 %30.63 in10.0 miNorth (10°)10.4 mphClear
8:55 PM1.9 °F-6.0 °F69 %30.63 in10.0 miNorth (10°)8.1 mphClear
9:55 PM1.0 °F-7.1 °F69 %30.65 in10.0 miNNE (30°)9.2 mphClear
10:55 PM1.0 °F-9.0 °F63 %30.65 in10.0 miNE (40°)10.4 mphClear
11:55 PM1.0 °F-8.0 °F66 %30.65 in10.0 miENE (60°)6.9 mphClear
Hourly data recorded from KHON, located miles away from Wessington, South Dakota







STORIES FROM OUR PARTNERS